STARLINK-1373, 45544

Orbit data source: Space-Track

STARLINK-1373, 45544 is a payload satellite owned by SpaceX/Seattle (US) in LEO that was launched on Wed, 22 Apr 2020 UTC via an FALCON 9 launch vehicle from the Air Force Eastern Test Range (AFETR). Payload-class satellites include a variety of spacecraft equipped with specific instruments for various scientific and technological missions. These include communications satellites like Starlink; space stations such as the ISS; scientific satellites like the Hubble; Earth observation satellites from companies like Planet Labs, Umbra, and HawkEye 360; GPS; miniature CubeSats for education and research; and military/defense satellites.

Loading next visibility...
Identifier
45544, 2020-025P
Orbit
LEO
Country
Flag of USUS
Related business
Manufacturer
SpaceX/Seattle
Mission
Operational Commercial Communications
Bus & Motor
STARLINK, Unknown motor
Mass
260 kg wet, ~248 kg dry
Launch date (UTC)
2020-04-22 (5 years ago)
Launch vehicle
FALCON 9
Launch site
Air Force Eastern Test Range (AFETR)
Object type
Payload
Rocket body
Debris
Shape & HBR
Box + 1 Pan, 10.1 m
Radar Cross Section
13.562 m², Large (>1 m²)

Expand to show TLE details & history
Last TLE update: 14 hours ago

TLE from 14 hours ago
0 STARLINK-1373
1 45544U 20025P   25287.73438770 -.00001371  00000-0 -73216-4 0  9991
2 45544  53.0563  41.8357 0001651 107.7171 252.3999 15.06385578303093
Epoch: 2025-10-14T17:37Z
TLE epoch observation values (Epoch: 2025-10-14T17:37:31.097Z)
Latitude
0.00004°
Longitude
113.9376°
Altitude
548.481 km
Speed
7.589 km/s
True Right ascension
02h 47m 20s
True Declination
0° 00' 00"
Sunlit
Object was in full shadow at epoch
Visualization orbit readout
Latitude
Unknown
Longitude
Unknown
Altitude
Unknown
Speed
Unknown
Apparent Right ascension
Unknown
Apparent Declination
Unknown
Sunlit
N/A
Visualization observer readout
Local Sidereal Time
02:16:30
Azimuth
Unknown
Elevation
Unknown
Doppler factor
Unknown
Orbital elements
Apogee altitude
548.67 km
Perigee altitude
546.383 km
Semi-major axis
6,925.663 km
Eccentricity
0.00017
Inclination
53.0563°
RAAN
41.8357°
Arg. of periapsis
107.7171°
True anomaly
252.38187°
Mean anomaly
252.3999°
Eccentric anomaly
252.39088°
Mean motion
3.76575 °/min
Orbital period
95.6 mins
BSTAR
-0.000073216
Loading maneuver chart data...
Computing Atmospheric mass density...

Documentation

Showing up to 5 results
|